DW1256 Weather Reports


Display with metric or nautical units.
time (UTC)temp
F
wind
direction
speed
MPH
gust
MPH
rain 1hr
in
rain 24hr
in
rain mn
in
humidity
%
barometer
mb
20260506160052 52 0 2.0 5.0 0.00 0.00 0.00 40 1012.8
20260506155546 53 0 2.0 6.0 0.00 0.00 0.00 44 1012.8
20260506155039 53 0 2.0 6.0 0.00 0.00 0.00 45 1012.7
20260506154534 53 0 2.0 5.0 0.00 0.00 0.00 45 1012.7
20260506153521 51 0 2.0 5.0 0.00 0.00 0.00 45 1012.6
20260506152510 52 0 3.0 5.0 0.00 0.00 0.00 49 1012.6
20260506152004 50 0 3.0 6.0 0.00 0.00 0.00 46 1012.6
20260506151458 51 0 3.0 6.0 0.00 0.00 0.00 46 1012.6
20260506150446 51 0 3.0 6.0 0.00 0.00 0.00 46 1012.5
20260506145939 50 0 3.0 6.0 0.00 0.00 0.00 48 1012.5
20260506145434 50 0 3.0 6.0 0.00 0.00 0.00 48 1012.5
20260506144927 50 0 3.0 9.0 0.00 0.00 0.00 48 1012.5
20260506144428 50 0 2.0 9.0 0.00 0.00 0.00 50 1012.6
20260506143928 50 0 2.0 5.0 0.00 0.00 0.00 50 1012.7
20260506143429 49 0 2.0 4.0 0.00 0.00 0.00 50 1012.6
20260506142927 49 0 1.0 4.0 0.00 0.00 0.00 52 1012.5
20260506142427 49 0 2.0 5.0 0.00 0.00 0.00 51 1012.6
20260506141928 49 0 2.0 5.0 0.00 0.00 0.00 51 1012.7
20260506141428 49 0 3.0 8.0 0.00 0.00 0.00 51 1012.7
20260506140926 49 0 2.0 8.0 0.00 0.00 0.00 51 1012.8
20260506140424 49 0 1.0 5.0 0.00 0.00 0.00 52 1012.8
20260506135425 49 0 2.0 5.0 0.00 0.00 0.00 52 1012.8
20260506134925 48 0 3.0 5.0 0.00 0.00 0.00 51 1012.7
20260506133926 48 0 3.0 8.0 0.00 0.00 0.00 52 1012.5
20260506133424 48 0 3.0 8.0 0.00 0.00 0.00 53 1012.4
20260506131920 47 0 3.0 9.0 0.00 0.00 0.00 54 1012.0
20260506131414 47 0 3.0 8.0 0.00 0.00 0.00 54 1011.9
20260506130908 47 0 3.0 8.0 0.00 0.00 0.00 55 1012.0
20260506130401 47 0 3.0 6.0 0.00 0.00 0.00 56 1011.9
20260506125856 47 0 3.0 6.0 0.00 0.00 0.00 56 1011.6
20260506125349 47 0 3.0 8.0 0.00 0.00 0.00 56 1011.5
20260506124844 47 0 4.0 9.0 0.00 0.00 0.00 57 1011.5
20260506124338 47 0 4.0 9.0 0.00 0.00 0.00 59 1011.4
20260506123832 46 0 3.0 6.0 0.00 0.00 0.00 60 1011.4
20260506123326 46 0 2.0 5.0 0.00 0.00 0.00 61 1011.4
20260506122820 45 0 2.0 6.0 0.00 0.01 0.00 61 1011.4
20260506122313 45 0 3.0 6.0 0.00 0.01 0.00 62 1011.3
20260506121808 45 0 3.0 6.0 0.00 0.01 0.00 62 1011.2
20260506120756 44 0 1.0 5.0 0.00 0.01 0.00 63 1010.8
20260506120250 43 0 1.0 5.0 0.00 0.01 0.00 63 1010.7
20260506115750 43 0 1.0 5.0 0.00 0.01 0.00 63 1010.7
20260506115252 43 0 0.0 1.0 0.00 0.01 0.00 63 1010.4
20260506114750 43 0 0.0 1.0 0.00 0.01 0.00 62 1010.7
20260506114246 43 0 0.0 2.0 0.00 0.01 0.00 62 1010.7
20260506113244 43 0 1.0 4.0 0.00 0.01 0.00 62 1010.4
20260506112745 43 0 1.0 6.0 0.00 0.01 0.00 62 1010.4
20260506112244 43 0 1.0 6.0 0.00 0.01 0.00 62 1010.2
20260506111243 42 0 0.0 2.0 0.00 0.01 0.00 62 1010.0
20260506110741 43 0 1.0 3.0 0.00 0.01 0.00 62 1010.0
20260506110240 43 0 1.0 3.0 0.00 0.01 0.00 62 1010.0
20260506105740 43 0 0.0 3.0 0.00 0.01 0.00 62 1010.1
20260506105238 43 0 0.0 3.0 0.00 0.01 0.00 62 1010.2
20260506104738 43 0 1.0 3.0 0.00 0.01 0.00 62 1010.1
20260506104239 43 0 1.0 2.0 0.00 0.01 0.00 62 1010.0
20260506103736 43 0 1.0 4.0 0.00 0.01 0.00 62 1010.0
20260506103238 43 0 1.0 4.0 0.00 0.01 0.00 62 1010.0
20260506102731 43 0 1.0 3.0 0.00 0.01 0.00 62 1009.7
20260506102226 43 0 1.0 3.0 0.00 0.01 0.00 62 1009.6
20260506101720 43 0 0.0 2.0 0.00 0.01 0.00 62 1009.4
20260506101213 43 0 1.0 4.0 0.00 0.01 0.00 62 1009.3
20260506100707 43 0 1.0 4.0 0.00 0.01 0.00 63 1009.2
20260506100201 43 0 1.0 3.0 0.00 0.01 0.00 63 1009.1
20260506095656 44 0 1.0 4.0 0.00 0.01 0.00 63 1009.0
20260506095149 44 0 1.0 6.0 0.00 0.01 0.00 63 1009.1
20260506094644 44 0 1.0 6.0 0.00 0.01 0.00 63 1009.2
20260506094138 44 0 1.0 4.0 0.00 0.01 0.00 63 1009.1
20260506093126 44 0 1.0 5.0 0.00 0.01 0.00 62 1009.2
20260506091612 44 0 2.0 4.0 0.00 0.01 0.00 62 1009.3
20260506091112 44 0 2.0 4.0 0.00 0.01 0.00 62 1009.3
20260506090611 45 0 2.0 4.0 0.00 0.01 0.00 62 1009.1
20260506090111 45 0 2.0 4.0 0.00 0.01 0.00 61 1009.1
20260506085609 45 0 1.0 3.0 0.00 0.01 0.00 61 1009.1
20260506085112 45 0 1.0 4.0 0.00 0.01 0.00 61 1009.1
20260506084609 46 0 1.0 4.0 0.00 0.01 0.00 61 1009.1
20260506084108 46 0 1.0 5.0 0.00 0.01 0.00 60 1008.9
20260506083104 46 0 2.0 5.0 0.00 0.01 0.00 60 1008.9
20260506082602 46 0 2.0 5.0 0.00 0.01 0.00 60 1008.9
20260506082058 46 0 2.0 5.0 0.00 0.01 0.00 59 1009.1
20260506081059 47 0 3.0 5.0 0.00 0.01 0.00 59 1008.9
20260506080558 47 0 3.0 5.0 0.00 0.01 0.00 58 1008.8
20260506073055 48 0 2.0 6.0 0.00 0.01 0.00 56 1008.7
20260506072552 48 0 2.0 5.0 0.00 0.01 0.00 56 1008.6
20260506072053 48 0 2.0 5.0 0.00 0.01 0.00 56 1008.5
20260506071553 48 0 2.0 5.0 0.00 0.01 0.00 56 1008.5
20260506071054 48 0 1.0 3.0 0.00 0.01 0.00 56 1008.5
20260506070550 48 0 1.0 3.0 0.00 0.01 0.00 56 1008.4
20260506062045 49 0 0.0 0.0 0.00 0.01 0.00 58 1008.3
20260506061545 49 0 0.0 0.0 0.00 0.01 0.00 58 1008.5
20260506051040 50 0 0.0 3.0 0.00 0.01 0.00 55 1008.7
20260506050541 50 0 1.0 4.0 0.00 0.01 0.00 56 1008.7
20260506045035 49 0 2.0 5.0 0.00 0.03 0.01 57 1008.7
20260506044537 49 0 2.0 4.0 0.00 0.04 0.01 58 1008.7
20260506044036 49 0 1.0 5.0 0.00 0.04 0.01 60 1008.6
20260506043536 49 0 1.0 5.0 0.00 0.04 0.01 60 1008.9
20260506043037 49 0 1.0 4.0 0.00 0.05 0.01 60 1008.9
20260506042537 49 0 1.0 3.0 0.00 0.06 0.01 60 1008.7
20260506042035 49 0 0.0 0.0 0.00 0.07 0.01 60 1008.7
20260506041535 49 0 0.0 0.0 0.00 0.08 0.01 61 1008.8
20260506040532 49 0 0.0 0.0 0.00 0.10 0.01 61 1008.9
20260506035532 49 0 0.0 3.0 0.00 0.12 0.01 62 1008.9
20260506035031 49 0 1.0 4.0 0.00 0.13 0.01 62 1009.1
20260506034531 49 0 2.0 4.0 0.00 0.14 0.01 63 1009.2
20260506034034 49 0 2.0 4.0 0.00 0.17 0.01 63 1009.2
20260506033535 49 0 1.0 4.0 0.00 0.19 0.01 64 1009.3
20260506033035 49 0 0.0 0.0 0.00 0.23 0.01 64 1009.1
20260506032535 49 0 0.0 0.0 0.00 0.37 0.01 64 1008.9
20260506032031 49 0 0.0 0.0 0.00 0.38 0.01 65 1008.8
20260506031530 49 0 0.0 0.0 0.00 0.38 0.01 65 1008.7
20260506030529 50 0 0.0 2.0 0.00 0.38 0.01 65 1008.4
20260506030029 50 0 0.0 2.0 0.00 0.38 0.01 66 1008.4
20260506025529 50 0 0.0 2.0 0.00 0.38 0.01 66 1008.3
20260506025029 50 0 0.0 2.0 0.00 0.38 0.01 66 1008.4
20260506024527 50 0 0.0 3.0 0.00 0.38 0.01 66 1008.5
20260506024029 50 0 1.0 3.0 0.00 0.38 0.01 66 1008.3
20260506023525 50 0 0.0 2.0 0.00 0.38 0.01 66 1008.3
20260506022524 50 0 1.0 2.0 0.00 0.38 0.01 65 1008.3
20260506022024 50 0 1.0 2.0 0.00 0.38 0.01 65 1008.2
20260506021023 50 0 0.0 0.0 0.00 0.38 0.01 64 1008.1
20260506020523 50 0 0.0 0.0 0.00 0.38 0.01 64 1007.9
20260506020023 50 0 0.0 0.0 0.00 0.38 0.01 64 1007.9
20260506015525 50 0 0.0 0.0 0.00 0.38 0.01 64 1008.0
20260506015024 50 0 0.0 0.0 0.00 0.38 0.01 64 1008.0
20260506014524 50 0 0.0 0.0 0.00 0.38 0.01 64 1007.9
20260506014024 50 0 0.0 0.0 0.00 0.38 0.01 64 1007.8
20260506013523 51 0 0.0 0.0 0.00 0.38 0.01 63 1007.7
20260506013023 51 0 0.0 0.0 0.00 0.38 0.01 63 1007.7
20260506012525 51 0 0.0 0.0 0.00 0.38 0.01 63 1007.5
20260506012023 51 0 0.0 0.0 0.00 0.38 0.01 63 1007.5
20260506011525 51 0 0.0 3.0 0.00 0.38 0.01 63 1007.4
20260506011023 51 0 1.0 3.0 0.00 0.38 0.01 63 1007.4
20260506010523 51 0 0.0 2.0 0.00 0.38 0.01 63 1007.3
20260506010025 51 0 0.0 1.0 0.00 0.38 0.01 62 1007.1
20260506005523 51 0 0.0 2.0 0.00 0.38 0.01 62 1007.2
20260506004525 51 0 0.0 1.0 0.00 0.38 0.01 62 1007.1
20260506004023 51 0 0.0 1.0 0.00 0.38 0.01 62 1007.1
20260506003521 51 0 0.0 2.0 0.00 0.38 0.01 62 1007.2
20260506002017 51 0 0.0 2.0 0.00 0.38 0.01 60 1007.3
20260506001013 51 0 0.0 1.0 0.00 0.38 0.01 60 1007.4
20260506000516 51 0 0.0 1.0 0.00 0.38 0.01 60 1007.4
20260506000012 51 0 0.0 0.0 0.00 0.38 0.01 60 1007.3
20260505235512 51 0 0.0 0.0 0.00 0.38 0.01 60 1007.4
20260505234512 51 0 0.0 4.0 0.00 0.38 0.01 59 1007.4
20260505234012 51 0 1.0 4.0 0.00 0.38 0.01 59 1007.3
20260505233512 51 0 1.0 4.0 0.00 0.38 0.01 59 1007.3
20260505233011 51 0 1.0 4.0 0.00 0.38 0.01 59 1007.2
20260505232013 51 0 2.0 6.0 0.00 0.38 0.01 58 1007.1
20260505231512 51 0 3.0 8.0 0.00 0.38 0.01 58 1007.0
20260505231011 51 0 2.0 8.0 0.00 0.38 0.01 58 1007.0
20260505230507 51 0 3.0 8.0 0.00 0.38 0.01 58 1006.9
20260505230008 51 0 3.0 8.0 0.00 0.38 0.01 58 1006.9
20260505225505 51 0 2.0 5.0 0.00 0.38 0.01 59 1007.0
20260505225006 51 0 3.0 6.0 0.00 0.38 0.01 59 1007.0
20260505224506 51 0 3.0 8.0 0.00 0.38 0.01 59 1007.0
20260505224009 51 0 2.0 8.0 0.00 0.38 0.01 59 1007.0
20260505223005 51 0 3.0 6.0 0.00 0.38 0.01 59 1007.1
20260505221504 51 0 3.0 8.0 0.00 0.38 0.01 60 1007.3
20260505221003 51 0 3.0 8.0 0.00 0.38 0.01 61 1007.4
20260505220502 51 0 4.0 8.0 0.00 0.38 0.01 59 1007.4
20260505215505 51 0 3.0 9.0 0.00 0.38 0.01 61 1007.6
20260505213959 51 0 4.0 9.0 0.00 0.38 0.01 59 1008.0
20260505213458 51 0 4.0 11.0 0.00 0.38 0.01 59 1007.9
20260505212956 51 0 4.0 12.0 0.00 0.38 0.01 58 1008.1
20260505212456 51 0 4.0 12.0 0.00 0.38 0.01 58 1008.1
20260505211953 52 0 4.0 12.0 0.00 0.38 0.01 58 1008.0
20260505211453 52 0 4.0 11.0 0.00 0.38 0.01 58 1008.0
20260505210953 52 0 4.0 11.0 0.00 0.38 0.01 58 1008.0
20260505210453 53 0 4.0 14.0 0.00 0.38 0.01 59 1008.0
20260505205451 53 0 5.0 11.0 0.00 0.38 0.01 55 1008.1
20260505204951 53 0 5.0 11.0 0.00 0.38 0.01 57 1008.1
20260505203952 54 0 4.0 9.0 0.00 0.38 0.01 57 1008.0
20260505203445 54 0 4.0 9.0 0.00 0.38 0.01 56 1008.1
20260505202944 54 0 4.0 9.0 0.00 0.38 0.01 56 1008.1
20260505202443 54 0 4.0 9.0 0.00 0.38 0.01 56 1008.1
20260505201945 54 0 4.0 8.0 0.00 0.38 0.01 56 1008.2
20260505200943 54 0 3.0 11.0 0.00 0.38 0.01 57 1008.2
20260505200443 54 0 4.0 11.0 0.00 0.38 0.01 57 1008.2
20260505195943 54 0 4.0 11.0 0.00 0.38 0.01 57 1008.2
20260505195444 54 0 2.0 11.0 0.00 0.38 0.01 58 1008.2
20260505194943 54 0 3.0 6.0 0.00 0.38 0.01 59 1008.2
20260505194444 54 0 3.0 9.0 0.00 0.38 0.01 59 1008.2
20260505193943 54 0 4.0 9.0 0.00 0.38 0.01 59 1008.2
20260505193441 54 0 4.0 9.0 0.00 0.38 0.01 59 1008.2
20260505192943 54 0 3.0 6.0 0.00 0.38 0.01 59 1008.1
20260505192444 53 0 3.0 9.0 0.00 0.38 0.01 59 1008.0
20260505191937 53 0 4.0 11.0 0.00 0.38 0.01 59 1008.0
20260505191430 53 0 3.0 11.0 0.00 0.38 0.01 60 1008.0
20260505190924 53 0 3.0 6.0 0.00 0.38 0.01 60 1008.0
20260505190419 53 0 3.0 6.0 0.00 0.38 0.01 60 1008.1
20260505185912 53 0 3.0 9.0 0.00 0.38 0.01 61 1008.1
20260505185406 53 0 3.0 9.0 0.00 0.38 0.01 61 1008.3
20260505184900 53 0 3.0 6.0 0.00 0.38 0.01 61 1008.1
20260505184356 53 0 2.0 6.0 0.00 0.38 0.01 61 1008.0
20260505183849 53 0 2.0 6.0 0.00 0.38 0.01 62 1008.0
20260505183342 53 0 2.0 5.0 0.00 0.38 0.01 62 1008.1
20260505182330 53 0 1.0 5.0 0.00 0.38 0.01 61 1008.1
20260505181824 54 0 2.0 5.0 0.00 0.38 0.01 61 1008.0
20260505181318 53 0 2.0 5.0 0.00 0.38 0.01 61 1008.0
20260505180812 54 0 2.0 5.0 0.00 0.38 0.01 61 1007.9
20260505180306 54 0 3.0 6.0 0.00 0.38 0.01 61 1007.8
20260505175800 54 0 4.0 9.0 0.00 0.38 0.01 61 1007.7
20260505175254 54 0 4.0 9.0 0.00 0.38 0.01 61 1007.8
20260505174749 54 0 4.0 8.0 0.00 0.38 0.01 60 1007.7
20260505174242 54 0 3.0 8.0 0.00 0.38 0.01 59 1007.7
20260505173736 54 0 3.0 5.0 0.00 0.38 0.01 55 1007.6
20260505173230 54 0 2.0 6.0 0.00 0.38 0.01 56 1007.7
20260505172724 54 0 2.0 6.0 0.00 0.38 0.01 54 1007.8
20260505172218 54 0 2.0 4.0 0.00 0.38 0.01 54 1008.0
20260505171712 55 0 2.0 4.0 0.00 0.38 0.01 53 1008.0
20260505170155 54 0 2.0 9.0 0.00 0.38 0.01 54 1007.9
20260505165648 55 0 2.0 5.0 0.00 0.38 0.01 54 1007.7
20260505165142 55 0 2.0 5.0 0.00 0.38 0.01 54 1007.7
20260505164636 55 0 2.0 5.0 0.00 0.38 0.01 54 1007.7
20260505163625 55 0 2.0 6.0 0.00 0.38 0.01 55 1007.4
20260505163119 54 0 2.0 6.0 0.00 0.38 0.01 57 1007.5
20260505162612 54 0 2.0 4.0 0.00 0.38 0.01 58 1007.5
20260505162107 54 0 2.0 5.0 0.00 0.38 0.01 57 1007.8
20260505161600 54 0 2.0 5.0 0.00 0.38 0.01 57 1007.6
20260505161054 54 0 2.0 4.0 0.00 0.38 0.01 59 1007.7